College Station, TX

1:52 PM CDT on September 21, 2017 (GMT -0500)
Easterwood

Weather History for KCLL - January, 2013

Change the Weather History Date:

Wednesday, January 2, 2013

  Actual Average Record
Temperature  
Mean Temperature 41 °F 51 °F  
Max Temperature 44 °F 60 °F 81 °F (2000)
Min Temperature 37 °F 41 °F 13 °F (1979)
Degree Days  
Heating Degree Days 24 15  
Month to date heating degree days 39 30  
Since 1 July heating degree days 523 666  
Cooling Degree Days 0 0  
Month to date cooling degree days 0 0  
Year to date cooling degree days 0 0  
Moisture  
Dew Point 32 °F    
Average Humidity 69    
Maximum Humidity 79    
Minimum Humidity 58    
Precipitation  
Precipitation 0.00 in 0.09 in 2.47 in (1991)
Month to date precipitation 0.40 0.19  
Year to date precipitation 0.40 0.19  
Sea Level Pressure  
Sea Level Pressure 30.28 in    
Wind  
Wind Speed 9 mph (North)    
Max Wind Speed 16 mph    
Max Gust Speed 21 mph    
Visibility 10 miles    
Events      
T = Trace of Precipitation, MM = Missing Value Source: NWS Daily Summary

Daily Weather History Graph

Daily Weather History Graph

Search for Another Location

Airport or City:

Trip Planner

Search our weather history database for the weather conditions in past years. The results will help you decide how hot, cold, wet, or windy it might be!

Date:

Astronomy

Jan. 02, 2013 Rise Set
Actual Time 7:23 AM CST 5:36 PM CST
Civil Twilight 6:56 AM CST 6:02 PM CST
Nautical Twilight 6:26 AM CST 6:32 PM CST
Astronomical Twilight 5:57 AM CST 7:02 PM CST
Moon 10:45 PM CST (1/2) 10:27 AM CST (1/2)
Length of Visible Light 11h 06m
Length of Day
10h 13m
Waning Gibbous, 75% of the Moon is Illuminated
Jan 2
Waning Gibbous
Jan 4
Last Quarter
Jan 11
New
Jan 18
First Quarter
Jan 26
Full

Hourly Weather History & Observations

Time (CST) Temp. Windchill Dew Point Humidity Pressure Visibility Wind Dir Wind Speed Gust Speed Precip Events Conditions
12:53 AM 42.1 °F 36.1 °F 35.1 °F 76% 30.25 in 10.0 mi North 10.4 mph - N/A   Overcast
1:53 AM 41.0 °F 33.9 °F 34.0 °F 76% 30.25 in 10.0 mi North 12.7 mph - N/A   Overcast
2:53 AM 41.0 °F 33.9 °F 34.0 °F 76% 30.25 in 10.0 mi North 12.7 mph - N/A   Overcast
3:53 AM 39.9 °F 33.9 °F 33.1 °F 77% 30.26 in 10.0 mi NNW 9.2 mph - N/A   Mostly Cloudy
4:53 AM 39.0 °F 32.3 °F 33.1 °F 79% 30.25 in 10.0 mi North 10.4 mph - N/A   Overcast
5:53 AM 39.0 °F 33.4 °F 33.1 °F 79% 30.27 in 10.0 mi NNW 8.1 mph - N/A   Overcast
6:28 AM 39.2 °F 33.6 °F 32.0 °F 75% 30.28 in 10.0 mi North 8.1 mph - N/A   Scattered Clouds
6:53 AM 37.9 °F 31.5 °F 30.9 °F 76% 30.27 in 10.0 mi North 9.2 mph - N/A   Partly Cloudy
7:53 AM 37.9 °F 31.5 °F 30.9 °F 76% 30.30 in 8.0 mi NNW 9.2 mph - N/A   Clear
8:53 AM 37.9 °F 32.1 °F 30.9 °F 76% 30.31 in 8.0 mi NNW 8.1 mph - N/A   Clear
9:53 AM 37.9 °F 31.5 °F 30.9 °F 76% 30.33 in 10.0 mi NNW 9.2 mph - N/A   Partly Cloudy
10:53 AM 39.9 °F 33.4 °F 30.9 °F 70% 30.33 in 10.0 mi North 10.4 mph - N/A   Scattered Clouds
11:53 AM 41.0 °F 34.3 °F 32.0 °F 70% 30.30 in 10.0 mi NNW 11.5 mph - N/A   Clear
12:53 PM 42.1 °F 35.7 °F 32.0 °F 67% 30.27 in 10.0 mi NNW 11.5 mph - N/A   Clear
1:53 PM 43.0 °F 37.2 °F 32.0 °F 65% 30.25 in 10.0 mi North 10.4 mph - N/A   Clear
2:53 PM 44.1 °F 37.7 °F 30.9 °F 60% 30.25 in 10.0 mi North 12.7 mph - N/A   Clear
3:53 PM 44.1 °F 38.6 °F 30.9 °F 60% 30.26 in 10.0 mi North 10.4 mph - N/A   Clear
4:53 PM 43.0 °F 37.7 °F 30.9 °F 62% 30.27 in 10.0 mi North 9.2 mph - N/A   Clear
5:53 PM 42.1 °F 37.1 °F 30.9 °F 65% 30.27 in 10.0 mi North 8.1 mph - N/A   Clear
6:53 PM 41.0 °F 36.4 °F 30.9 °F 67% 30.29 in 10.0 mi North 6.9 mph - N/A   Clear
7:53 PM 39.9 °F 35.8 °F 32.0 °F 73% 30.31 in 10.0 mi North 5.8 mph - N/A   Clear
8:53 PM 39.9 °F 35.8 °F 30.9 °F 70% 30.30 in 10.0 mi North 5.8 mph - N/A   Clear
9:53 PM 39.2 °F 35.0 °F 30.2 °F 70% 30.31 in 10.0 mi North 5.8 mph - N/A   Clear
10:53 PM 39.0 °F 34.8 °F 30.9 °F 73% 30.33 in 10.0 mi North 5.8 mph - N/A   Clear
11:53 PM 37.0 °F 32.4 °F 30.9 °F 79% 30.33 in 9.0 mi North 5.8 mph - N/A   Clear